Total_Precipitation_Accumulation
0.32 0.41 0.43 0.39 0.40 0.41 0.45 0.56 0.63 0.54 0.54 0.64 0.76 0.85 0.95 0.97 0.96 0.85 0.69 0.68 0.61 0.55 0.50 0.47 0.48 0.53 0.60 0.65 0.69 0.76 0.84 0.88 0.98 1.16 1.41 1.65 1.87 2.08
0.40 0.45 0.51 0.51 0.52 0.51 0.52 0.60 0.73 0.72 0.66 0.67 0.75 0.76 0.76 0.62 0.64 0.64 0.61 0.63 0.55 0.50 0.48 0.45 0.42 0.43 0.46 0.51 0.55 0.57 0.60 0.62 0.63 0.67 0.74 0.86 1.02 1.28
0.38 0.44 0.48 0.56 0.62 0.64 0.69 0.70 0.74 0.84 0.79 0.66 0.77 0.86 0.78 0.61 0.51 0.52 0.53 0.54 0.51 0.50 0.47 0.46 0.44 0.43 0.42 0.41 0.45 0.49 0.48 0.49 0.49 0.49 0.50 0.53 0.52 0.56
0.37 0.47 0.50 0.52 0.58 0.65 0.77 0.79 0.81 0.94 0.93 0.79 0.85 0.94 0.86 0.74 0.61 0.54 0.44 0.43 0.44 0.48 0.47 0.48 0.47 0.44 0.42 0.40 0.38 0.37 0.37 0.37 0.38 0.38 0.37 0.36 0.36 0.37
0.37 0.44 0.51 0.59 0.61 0.66 0.75 0.79 0.85 1.00 1.05 0.97 0.96 1.07 1.10 0.89 0.67 0.52 0.42 0.43 0.39 0.43 0.45 0.47 0.47 0.44 0.40 0.39 0.40 0.36 0.32 0.30 0.28 0.28 0.29 0.31 0.31 0.32
0.40 0.43 0.46 0.56 0.65 0.70 0.78 0.89 0.97 1.06 1.14 1.11 1.14 1.24 1.24 1.11 0.86 0.58 0.49 0.46 0.44 0.40 0.42 0.42 0.43 0.41 0.38 0.34 0.33 0.33 0.33 0.33 0.30 0.26 0.24 0.23 0.24 0.24
0.32 0.38 0.39 0.44 0.54 0.66 0.73 0.84 1.01 1.16 1.31 1.36 1.36 1.52 1.47 1.29 1.02 0.72 0.60 0.53 0.50 0.47 0.44 0.37 0.35 0.33 0.31 0.31 0.30 0.30 0.29 0.28 0.29 0.29 0.27 0.24 0.22 0.22
0.32 0.39 0.39 0.39 0.42 0.48 0.58 0.71 0.85 1.01 1.21 1.39 1.51 1.61 1.66 1.53 1.33 1.07 0.75 0.56 0.50 0.51 0.50 0.47 0.42 0.38 0.34 0.30 0.31 0.29 0.29 0.27 0.25 0.25 0.26 0.28 0.27 0.23
0.38 0.41 0.35 0.30 0.37 0.40 0.44 0.51 0.60 0.71 0.86 1.08 1.27 1.37 1.54 1.67 1.54 1.24 0.96 0.75 0.60 0.57 0.56 0.50 0.48 0.46 0.42 0.38 0.40 0.34 0.30 0.29 0.27 0.24 0.24 0.24 0.26 0.27
0.40 0.42 0.40 0.36 0.38 0.43 0.48 0.46 0.45 0.48 0.57 0.68 0.83 1.05 1.26 1.48 1.54 1.42 1.32 1.06 0.81 0.65 0.60 0.52 0.45 0.42 0.43 0.41 0.41 0.37 0.34 0.33 0.31 0.30 0.28 0.27 0.26 0.26
0.44 0.46 0.49 0.44 0.39 0.36 0.42 0.42 0.41 0.41 0.41 0.49 0.60 0.81 1.05 1.22 1.41 1.41 1.30 1.16 0.93 0.69 0.57 0.51 0.43 0.41 0.40 0.36 0.37 0.38 0.36 0.36 0.36 0.34 0.33 0.32 0.31 0.31
0.54 0.55 0.51 0.43 0.39 0.31 0.36 0.41 0.39 0.37 0.43 0.43 0.48 0.58 0.70 0.95 1.16 1.20 1.12 1.05 0.92 0.71 0.53 0.48 0.41 0.40 0.41 0.32 0.26 0.28 0.29 0.35 0.40 0.40 0.39 0.37 0.36 0.29
0.56 0.57 0.58 0.49 0.38 0.30 0.31 0.36 0.34 0.38 0.48 0.51 0.52 0.58 0.69 0.81 1.00 1.09 1.08 0.95 0.83 0.67 0.51 0.48 0.44 0.40 0.36 0.29 0.25 0.24 0.24 0.25 0.28 0.34 0.41 0.45 0.43 0.34
0.58 0.62 0.64 0.54 0.43 0.36 0.29 0.27 0.27 0.30 0.40 0.46 0.50 0.51 0.58 0.67 0.83 1.05 1.16 1.08 0.89 0.75 0.68 0.64 0.53 0.47 0.38 0.28 0.24 0.24 0.27 0.28 0.27 0.27 0.32 0.45 0.50 0.49
0.58 0.69 0.70 0.57 0.51 0.45 0.37 0.29 0.28 0.28 0.35 0.43 0.42 0.43 0.48 0.57 0.75 1.05 1.29 1.43 1.29 1.01 0.88 0.78 0.69 0.61 0.54 0.39 0.26 0.22 0.24 0.27 0.27 0.27 0.28 0.34 0.40 0.45
0.54 0.65 0.72 0.72 0.68 0.62 0.52 0.40 0.31 0.32 0.34 0.41 0.46 0.49 0.58 0.68 0.79 0.87 1.09 1.29 1.35 1.19 0.99 0.88 0.79 0.77 0.67 0.50 0.37 0.27 0.22 0.23 0.25 0.28 0.31 0.32 0.37 0.43
0.59 0.76 0.90 0.95 0.97 0.91 0.78 0.65 0.54 0.50 0.46 0.48 0.57 0.62 0.67 0.71 0.73 0.78 0.93 1.08 1.09 1.01 0.95 0.93 0.94 0.91 0.88 0.77 0.56 0.35 0.27 0.22 0.22 0.28 0.35 0.37 0.38 0.42
0.46 0.71 0.99 1.09 1.13 1.13 1.03 0.87 0.75 0.69 0.65 0.65 0.69 0.71 0.71 0.76 0.79 0.84 0.91 1.01 1.00 0.91 0.88 0.87 0.96 1.03 0.98 0.89 0.68 0.48 0.35 0.28 0.25 0.31 0.37 0.40 0.38 0.41
0.33 0.54 0.83 1.05 1.15 1.20 1.15 0.99 0.84 0.80 0.83 0.80 0.78 0.77 0.76 0.77 0.84 0.89 0.91 0.97 1.00 0.94 0.87 0.88 0.93 0.98 0.91 0.72 0.58 0.50 0.45 0.38 0.39 0.38 0.39 0.39 0.36 0.35
0.30 0.46 0.71 0.97 1.08 1.14 1.13 1.08 0.97 0.94 0.94 0.91 0.87 0.84 0.83 0.83 0.81 0.84 0.88 0.90 0.93 0.98 0.91 0.85 0.84 0.82 0.77 0.69 0.62 0.56 0.51 0.52 0.52 0.47 0.41 0.43 0.43 0.45
0.40 0.46 0.61 0.83 0.98 1.07 1.09 1.07 1.03 1.01 1.01 1.01 0.97 0.94 0.90 0.92 0.87 0.82 0.86 0.93 0.97 1.00 0.90 0.71 0.68 0.80 0.94 1.02 0.88 0.64 0.53 0.53 0.59 0.61 0.56 0.56 0.53 0.53
0.50 0.52 0.59 0.75 0.91 1.03 1.06 1.04 1.07 1.06 1.07 1.06 1.04 1.00 0.95 0.95 0.96 0.94 0.95 0.98 0.92 0.89 0.89 0.85 0.89 0.99 1.01 0.95 0.80 0.71 0.64 0.61 0.67 0.70 0.65 0.58 0.54 0.48
0.62 0.59 0.63 0.75 0.85 0.96 0.99 0.97 1.00 1.07 1.08 1.07 1.05 1.05 1.02 0.99 1.01 1.03 1.00 1.03 1.02 1.01 1.07 1.11 1.09 1.04 0.96 0.93 0.86 0.81 0.78 0.73 0.74 0.73 0.62 0.56 0.48 0.43